This is the latest recevied weather packets stored in our database for station/object KK6LZB. If no packets are shown the sender has not sent any weather packets the latest 10 day(s).
| Time | Temp. | Humidity | Pressure | Rain* | Wind** | Luminosity | Snow |
|---|---|---|---|---|---|---|---|
| 1777823094 | 16.67° C | 87% | 1016.1 hPa | 0 mm | - | 140 W/m² | - |
| 1777822792 | 16.67° C | 86% | 1016 hPa | 0 mm | - | 137 W/m² | - |
| 1777822490 | 17.22° C | 86% | 1016.2 hPa | 0 mm | - | 173 W/m² | - |
| 1777822187 | 16.67° C | 87% | 1016.1 hPa | 0 mm | - | 155 W/m² | - |
| 1777821884 | 16.67° C | 88% | 1016.1 hPa | 0 mm | - | 159 W/m² | - |
| 1777821581 | 16.67° C | 89% | 1016 hPa | 0 mm | - | 134 W/m² | - |
| 1777821279 | 16.67° C | 89% | 1016.2 hPa | 0 mm | - | 118 W/m² | - |
| 1777820976 | 16.67° C | 91% | 1016.1 hPa | 0 mm | - | 108 W/m² | - |
| 1777820673 | 16.11° C | 92% | 1015.9 hPa | 0 mm | - | 109 W/m² | - |
| 1777820368 | 15.56° C | 93% | 1016 hPa | 0 mm | - | 103 W/m² | - |
| 1777820067 | 15.56° C | 94% | 1016.1 hPa | 0 mm | - | 95 W/m² | - |
| 1777819763 | 15.56° C | 95% | 1015.8 hPa | 0 mm | - | 97 W/m² | - |
| 1777819462 | 15° C | 96% | 1015.8 hPa | 0 mm | - | 93 W/m² | - |
| 1777819159 | 15° C | 97% | 1015.7 hPa | 0 mm | - | 73 W/m² | - |
| 1777818856 | 14.44° C | 98% | 1015.8 hPa | 0 mm | - | 70 W/m² | - |
| 1777818551 | 14.44° C | 98% | 1015.8 hPa | 0 mm | - | 59 W/m² | - |
| 1777818249 | 14.44° C | 99% | 1015.8 hPa | 0 mm | - | 54 W/m² | - |
| 1777817945 | 14.44° C | 99% | 1015.8 hPa | 0 mm | - | 43 W/m² | - |
| 1777817643 | 14.44° C | 99% | 1015.5 hPa | 0 mm | - | 38 W/m² | - |
| 1777817339 | 13.89° C | 99% | 1015.4 hPa | 0 mm | - | 40 W/m² | - |
| 1777817036 | 13.89° C | 99% | 1015.6 hPa | 0 mm | - | 33 W/m² | - |
| 1777816732 | 13.89° C | 99% | 1015.5 hPa | 0 mm | - | 26 W/m² | - |
| 1777816430 | 13.89° C | 99% | 1015.5 hPa | 0 mm | - | 25 W/m² | - |
| 1777816127 | 13.89° C | 99% | 1015.4 hPa | 0 mm | - | 19 W/m² | - |
| 1777815825 | 13.89° C | 99% | 1015.2 hPa | 0 mm | - | 17 W/m² | - |
* Rain latest hour (hover to see other rain measurements)
** Current wind speed in m/s (hover to see current wind gust speed)